Weather History for Buckland, AK

Change the Weather History Date:

Tuesday, February 19, 2013

  Actual Average (PASK) Record (PASK)
Temperature  
Mean Temperature -26 °F -  
Max Temperature -16 °F 6 °F 33 °F (2008)
Min Temperature -36 °F -2 °F -34 °F (2014)
Degree Days  
Heating Degree Days 91    
Moisture  
Dew Point -28 °F    
Average Humidity 69    
Maximum Humidity 100    
Minimum Humidity 53    
Precipitation  
Precipitation 0.00 in - - ()
Sea Level Pressure  
Sea Level Pressure 30.03 in    
Wind  
Wind Speed 0 mph (SSE)    
Max Wind Speed 6 mph    
Max Gust Speed -    
Visibility 10 miles    
Events      
Averages and records for this station are not official NWS values.
T = Trace of Precipitation, MM = Missing Value Source: NWS Daily Summary

Daily Weather History Graph

Daily Weather History Graph

Search for Another Location

Airport:

Trip Planner

Search our weather history database for the weather conditions in past years. The results will help you decide how hot, cold, wet, or windy it might be!

Date:

Astronomy

Feb. 19, 2013 Rise Set
Actual Time 9:32 AM AKST 6:25 PM AKST
Civil Twilight 8:38 AM AKST 7:19 PM AKST
Nautical Twilight 7:39 AM AKST 8:18 PM AKST
Astronomical Twilight 6:40 AM AKST 9:18 PM AKST
Moon 11:27 AM AKST (2/19) 6:53 AM AKST (2/19)
Length of Visible Light 10h 40m
Length of Day
8h 52m
Waxing Gibbous, 69% of the Moon is Illuminated
Feb 19
Waxing Gibbous
Feb 25
Full
Mar 4
Last Quarter
Mar 11
New
Mar 19
First Quarter

Hourly Weather History & Observations

Time (AKST) Temp. Windchill Dew Point Humidity Pressure Visibility Wind Dir Wind Speed Gust Speed Precip Events Conditions
12:16 AM -36.4 °F - - N/A% 30.29 in 10.0 mi Calm Calm - N/A   Unknown
12:36 AM -36.4 °F - - N/A% 30.29 in 10.0 mi Calm Calm - N/A   Unknown
12:56 AM -36.4 °F - - N/A% 30.29 in 10.0 mi Calm Calm - N/A   Unknown
1:16 AM -34.6 °F -47.4 °F - N/A% 30.29 in 10.0 mi East 3.5 mph - N/A   Unknown
1:36 AM -32.8 °F - - N/A% 30.28 in 10.0 mi Calm Calm - N/A   Unknown
1:56 AM -34.6 °F - - N/A% 30.26 in 10.0 mi Calm Calm - N/A   Unknown
2:16 AM -31.0 °F - - N/A% 30.24 in 10.0 mi Calm Calm - N/A   Unknown
2:36 AM -36.4 °F - - N/A% 30.24 in 10.0 mi Calm Calm - N/A   Unknown
2:56 AM -34.6 °F - - N/A% 30.24 in 10.0 mi Calm Calm - N/A   Unknown
3:16 AM -36.4 °F - - N/A% 30.24 in 10.0 mi Calm Calm - N/A   Unknown
3:36 AM -36.4 °F - - N/A% 30.23 in 10.0 mi Calm Calm - N/A   Unknown
3:56 AM -34.6 °F - - N/A% 30.23 in 10.0 mi Calm Calm - N/A   Unknown
4:16 AM -32.8 °F - -32.8 °F 100% 30.22 in 10.0 mi Calm Calm - N/A   Unknown
4:36 AM -29.2 °F - - N/A% 30.21 in 10.0 mi Calm Calm - N/A   Unknown
4:56 AM -31.0 °F - - N/A% 30.21 in 10.0 mi Calm Calm - N/A   Unknown
5:16 AM -34.6 °F - - N/A% 30.19 in 10.0 mi Calm Calm - N/A   Unknown
5:36 AM -32.8 °F - - N/A% 30.18 in 10.0 mi Calm Calm - N/A   Unknown
5:56 AM -34.6 °F - - N/A% 30.17 in 10.0 mi Calm Calm - N/A   Unknown
6:16 AM -34.6 °F - - N/A% 30.14 in 10.0 mi Calm Calm - N/A   Unknown
6:36 AM -32.8 °F - - N/A% 30.14 in 10.0 mi Calm Calm - N/A   Unknown
6:56 AM -32.8 °F - - N/A% 30.12 in 10.0 mi Calm Calm - N/A   Unknown
7:16 AM -29.2 °F -41.2 °F - N/A% 30.11 in 10.0 mi SW 3.5 mph - N/A   Unknown
7:36 AM -23.8 °F - - N/A% 30.11 in 10.0 mi Calm Calm - N/A   Unknown
7:56 AM -23.8 °F - - N/A% 30.11 in 10.0 mi Calm Calm - N/A   Unknown
8:16 AM - - - N/A% 30.11 in 10.0 mi Calm Calm - N/A   Unknown
8:36 AM -20.2 °F - - N/A% 30.12 in 10.0 mi Calm Calm - N/A   Unknown
8:56 AM - - - N/A% 30.11 in 10.0 mi Calm Calm - N/A   Unknown
9:16 AM -16.6 °F - -25.6 °F 64% 30.11 in 10.0 mi Calm Calm - N/A   Unknown
9:36 AM - - - N/A% 30.11 in 10.0 mi Calm Calm - N/A   Unknown
9:56 AM -16.6 °F - -27.4 °F 58% 30.10 in 10.0 mi Calm Calm - N/A   Unknown
10:16 AM - - - N/A% 30.09 in 10.0 mi Calm Calm - N/A   Unknown
10:36 AM -20.2 °F - - N/A% 30.09 in 10.0 mi Calm Calm - N/A   Unknown
10:56 AM - - - N/A% 30.08 in 10.0 mi Calm Calm - N/A   Unknown
11:16 AM -16.6 °F - -18.4 °F 92% 30.08 in 10.0 mi Calm Calm - N/A   Unknown
11:36 AM - - - N/A% 30.07 in 10.0 mi Calm Calm - N/A   Unknown
11:56 AM -20.2 °F -30.9 °F - N/A% 30.06 in 10.0 mi North 3.5 mph - N/A   Unknown
12:16 PM -20.2 °F - -29.2 °F 63% 30.05 in 10.0 mi Calm Calm - N/A   Unknown
12:36 PM -20.2 °F -30.9 °F -27.4 °F 69% 30.04 in 10.0 mi NNW 3.5 mph - N/A   Unknown
12:56 PM - - - N/A% 30.02 in 10.0 mi Calm Calm - N/A   Unknown
1:16 PM -20.2 °F - - N/A% 30.02 in 10.0 mi Calm Calm - N/A   Unknown
1:36 PM - - - N/A% 30.00 in 10.0 mi Calm Calm - N/A   Unknown
1:56 PM -20.2 °F - -29.2 °F 63% 29.99 in 10.0 mi Calm Calm - N/A   Unknown
2:16 PM -18.4 °F - - N/A% 29.99 in 10.0 mi Calm Calm - N/A   Unknown
3:36 PM -16.6 °F - -27.4 °F 58% 29.93 in 10.0 mi Calm Calm - N/A   Unknown
3:56 PM -16.6 °F - -27.4 °F 58% 29.92 in 10.0 mi Calm Calm - N/A   Unknown
4:16 PM -16.6 °F - -27.4 °F 58% 29.91 in 10.0 mi Calm Calm - N/A   Unknown
4:36 PM -16.6 °F - -29.2 °F 53% 29.90 in 10.0 mi Calm Calm - N/A   Unknown
4:56 PM -18.4 °F - -27.4 °F 63% 29.89 in 10.0 mi Calm Calm - N/A   Unknown
5:16 PM -18.4 °F - - N/A% 29.88 in 10.0 mi Calm Calm - N/A   Unknown
5:36 PM -20.2 °F -33.5 °F -29.2 °F 63% 29.87 in 10.0 mi South 4.6 mph - N/A   Unknown
5:56 PM - - - N/A% 29.86 in 10.0 mi Calm Calm - N/A   Unknown
6:16 PM -23.8 °F - - N/A% 29.86 in 10.0 mi Calm Calm - N/A   Unknown
6:36 PM -23.8 °F - -29.2 °F 76% 29.86 in 10.0 mi Calm Calm - N/A   Unknown
6:56 PM -25.6 °F - - N/A% 29.85 in 10.0 mi Calm Calm - N/A   Unknown
7:16 PM -27.4 °F - - N/A% 29.85 in 10.0 mi Calm Calm - N/A   Unknown
7:36 PM -27.4 °F - - N/A% 29.84 in 10.0 mi Calm Calm - N/A   Unknown
7:56 PM -27.4 °F - - N/A% 29.83 in 10.0 mi Calm Calm - N/A   Unknown
8:16 PM -27.4 °F - - N/A% 29.83 in 10.0 mi Calm Calm - N/A   Unknown
8:36 PM -27.4 °F - - N/A% 29.82 in 10.0 mi Calm Calm - N/A   Unknown
8:56 PM -31.0 °F - - N/A% 29.82 in 10.0 mi Calm Calm - N/A   Unknown
9:16 PM -29.2 °F - - N/A% 29.82 in 10.0 mi Calm Calm - N/A   Unknown
9:36 PM -29.2 °F - - N/A% 29.82 in 10.0 mi Calm Calm - N/A   Unknown
9:56 PM -29.2 °F - - N/A% 29.81 in 10.0 mi Calm Calm - N/A   Unknown
10:16 PM -29.2 °F - - N/A% 29.81 in 10.0 mi Calm Calm - N/A   Unknown
10:36 PM -29.2 °F - - N/A% 29.80 in 10.0 mi Calm Calm - N/A   Unknown
10:56 PM -27.4 °F - - N/A% 29.79 in 10.0 mi Calm Calm - N/A   Unknown
11:16 PM -29.2 °F - -29.2 °F 100% 29.79 in 10.0 mi Calm Calm - N/A   Unknown
11:36 PM -31.0 °F - - N/A% 29.78 in 10.0 mi Calm Calm - N/A   Unknown
11:56 PM -32.8 °F -50.5 °F - N/A% 29.79 in 10.0 mi SSE 5.8 mph - N/A   Unknown